Powrót do katalogu

TJS-23

AktywnyŁącznośćGEO
NORAD 67226·PAYLOAD·🇨🇳 China

Wystrzelony Dec 20, 2025 z Wenchang Space Launch Site

Loading…

TLE

ŚwieżeSource: Space-Track

Epoka: Sep 14, 2026, 08:32 UTC

1 67226U 25306A   26257.35558780  .00000006  00000-0  00000-0 0  9998
2 67226   5.3917 297.0603 0004620 251.6896 108.1071  1.00274356  2789

Śledź TJS-23 w czasie rzeczywistym z AllMySat

Download on the App Store